When you browse on this site, cookies collect data to enhance your experience and personalize the content and advertising you see.
Visit our Privacy Policy to learn more. By continuing to use the site, you agree to this use of cookies and data.

Meteo pe oră la Aberdeen

Astăzi, 13 August, Joi

Timp Temperatura Precipitaţii Vânt Presiune Umiditate
00:00 +18°C° 0 mm 1 m/s 755 mmHg 96%
01:00 +18°C° 0 mm 1 m/s 755 mmHg 96%
02:00 +18°C° 0 mm 1 m/s 755 mmHg 96%
03:00 +16°C° 0 mm 1 m/s 755 mmHg 96%
04:00 +17°C° 0 mm 2 m/s 755 mmHg 95%
05:00 +17°C° 0 mm 2 m/s 755 mmHg 95%
06:00 +17°C° 0 mm 2 m/s 755 mmHg 94%
07:00 +18°C° 0 mm 2 m/s 755 mmHg 91%
08:00 +19°C° 0 mm 2 m/s 755 mmHg 87%
09:00 +20°C° 0 mm 2 m/s 756 mmHg 83%
10:00 +20°C° 0 mm 2 m/s 756 mmHg 82%
11:00 +20°C° 0 mm 3 m/s 756 mmHg 81%
12:00 +21°C° 0 mm 3 m/s 756 mmHg 80%
13:00 +21°C° 0 mm 3 m/s 756 mmHg 80%
14:00 +21°C° 0 mm 3 m/s 756 mmHg 80%
15:00 +21°C° 0 mm 3 m/s 756 mmHg 81%
16:00 +20°C° 0 mm 3 m/s 755 mmHg 83%
17:00 +19°C° 0 mm 3 m/s 755 mmHg 85%
18:00 +18°C° 0 mm 3 m/s 755 mmHg 87%
19:00 +18°C° 0 mm 3 m/s 756 mmHg 88%
20:00 +17°C° 0 mm 2 m/s 756 mmHg 90%
21:00 +16°C° 0 mm 2 m/s 756 mmHg 91%
22:00 +16°C° 0 mm 2 m/s 756 mmHg 91%
23:00 +15°C° 0 mm 2 m/s 756 mmHg 92%

Mâine, 14 August, Vineri

Timp Temperatura Precipitaţii Vânt Presiune Umiditate
00:00 +15°C° 0 mm 2 m/s 756 mmHg 92%
01:00 +15°C° 0 mm 1 m/s 756 mmHg 92%
02:00 +15°C° 0 mm 1 m/s 756 mmHg 91%
03:00 +15°C° 0 mm 1 m/s 755 mmHg 91%
04:00 +15°C° 0 mm 1 m/s 755 mmHg 90%
05:00 +15°C° 0 mm 1 m/s 755 mmHg 90%
06:00 +15°C° 0 mm 1 m/s 755 mmHg 90%
07:00 +16°C° 0 mm 1 m/s 755 mmHg 88%
08:00 +16°C° 0 mm 2 m/s 756 mmHg 86%
09:00 +17°C° 0 mm 2 m/s 756 mmHg 84%
10:00 +17°C° 0 mm 2 m/s 755 mmHg 84%
11:00 +17°C° 0 mm 2 m/s 755 mmHg 84%
12:00 +17°C° 0 mm 2 m/s 755 mmHg 83%
13:00 +18°C° 0 mm 2 m/s 755 mmHg 82%
14:00 +18°C° 0 mm 2 m/s 755 mmHg 81%
15:00 +18°C° 0 mm 2 m/s 755 mmHg 80%
16:00 +18°C° 0 mm 2 m/s 755 mmHg 81%
17:00 +18°C° 0 mm 2 m/s 755 mmHg 82%
18:00 +17°C° 0 mm 2 m/s 755 mmHg 83%
19:00 +16°C° 0 mm 1 m/s 755 mmHg 87%
20:00 +15°C° 0 mm 1 m/s 756 mmHg 91%
21:00 +12°C° 0 mm 0 m/s 756 mmHg 94%
22:00 +12°C° 0 mm 0 m/s 756 mmHg 95%
23:00 +12°C° 0 mm 0 m/s 756 mmHg 95%

Poimâine, 15 August, Sâmbătă

Timp Temperatura Precipitaţii Vânt Presiune Umiditate
00:00 +11°C° 0 mm 0 m/s 756 mmHg 95%
01:00 +11°C° 0 mm 0 m/s 756 mmHg 95%
02:00 +11°C° 0 mm 0 m/s 756 mmHg 95%
03:00 +11°C° 0 mm 0 m/s 756 mmHg 95%
04:00 +11°C° 0 mm 0 m/s 756 mmHg 94%
05:00 +12°C° 0 mm 0 m/s 756 mmHg 94%
06:00 +12°C° 0 mm 0 m/s 755 mmHg 94%
07:00 +15°C° 0 mm 1 m/s 756 mmHg 88%
08:00 +16°C° 0 mm 1 m/s 756 mmHg 82%
09:00 +18°C° 0 mm 1 m/s 756 mmHg 77%
10:00 +18°C° 0 mm 2 m/s 756 mmHg 74%
11:00 +19°C° 0 mm 2 m/s 756 mmHg 71%
12:00 +20°C° 0 mm 2 m/s 756 mmHg 68%
13:00 +20°C° 0 mm 2 m/s 756 mmHg 68%
14:00 +20°C° 0 mm 3 m/s 756 mmHg 69%
15:00 +20°C° 0 mm 3 m/s 756 mmHg 70%
16:00 +19°C° 0 mm 3 m/s 756 mmHg 73%
17:00 +18°C° 0 mm 2 m/s 755 mmHg 76%
18:00 +17°C° 0 mm 2 m/s 755 mmHg 79%
19:00 +16°C° 0 mm 2 m/s 755 mmHg 84%
20:00 +14°C° 0 mm 2 m/s 756 mmHg 88%
21:00 +13°C° 0 mm 1 m/s 756 mmHg 93%
22:00 +13°C° 0 mm 1 m/s 755 mmHg 93%
23:00 +12°C° 0 mm 1 m/s 755 mmHg 93%

16 August, Duminică

Timp Temperatura Precipitaţii Vânt Presiune Umiditate
00:00 +12°C° 0 mm 1 m/s 755 mmHg 93%
01:00 +12°C° 0 mm 1 m/s 755 mmHg 93%
02:00 +12°C° 0 mm 1 m/s 755 mmHg 93%
03:00 +11°C° 0 mm 1 m/s 755 mmHg 92%
04:00 +12°C° 0 mm 2 m/s 754 mmHg 92%
05:00 +12°C° 0 mm 2 m/s 754 mmHg 91%
06:00 +12°C° 0 mm 2 m/s 754 mmHg 90%
07:00 +14°C° 0 mm 2 m/s 754 mmHg 84%
08:00 +14°C° 0 mm 3 m/s 754 mmHg 78%
09:00 +17°C° 0 mm 3 m/s 755 mmHg 71%
10:00 +17°C° 0 mm 4 m/s 754 mmHg 70%
11:00 +18°C° 0 mm 4 m/s 754 mmHg 68%
12:00 +18°C° 0 mm 4 m/s 754 mmHg 67%
13:00 +18°C° 0 mm 4 m/s 754 mmHg 68%
14:00 +18°C° 0 mm 4 m/s 754 mmHg 69%
15:00 +18°C° 0 mm 4 m/s 753 mmHg 70%
16:00 +15°C° 0.4 mm 4 m/s 753 mmHg 77%
17:00 +14°C° 0.4 mm 3 m/s 753 mmHg 84%
18:00 +13°C° 0.4 mm 3 m/s 753 mmHg 91%
19:00 +13°C° 0.3 mm 3 m/s 753 mmHg 92%
20:00 +14°C° 0.3 mm 2 m/s 753 mmHg 94%
21:00 +13°C° 0.3 mm 2 m/s 753 mmHg 95%
22:00 +13°C° 0.3 mm 2 m/s 753 mmHg 95%
23:00 +13°C° 0.3 mm 2 m/s 752 mmHg 95%

17 August, Luni

Timp Temperatura Precipitaţii Vânt Presiune Umiditate
00:00 +12°C° 0.3 mm 3 m/s 752 mmHg 95%
01:00 +13°C° 0.3 mm 2 m/s 752 mmHg 95%
02:00 +13°C° 0.3 mm 2 m/s 752 mmHg 95%
03:00 +13°C° 0.3 mm 2 m/s 752 mmHg 95%
04:00 +13°C° 0.1 mm 2 m/s 751 mmHg 94%
05:00 +13°C° 0.1 mm 2 m/s 751 mmHg 93%
06:00 +12°C° 0.1 mm 3 m/s 751 mmHg 93%
07:00 +14°C° 0.4 mm 2 m/s 751 mmHg 93%
08:00 +14°C° 0.4 mm 2 m/s 751 mmHg 93%
09:00 +14°C° 0.4 mm 2 m/s 751 mmHg 92%
10:00 +15°C° 0.2 mm 2 m/s 751 mmHg 89%
11:00 +16°C° 0.2 mm 3 m/s 751 mmHg 85%
12:00 +17°C° 0.2 mm 3 m/s 751 mmHg 81%
13:00 +17°C° 0 mm 3 m/s 750 mmHg 81%
14:00 +17°C° 0 mm 3 m/s 750 mmHg 81%
15:00 +18°C° 0 mm 3 m/s 750 mmHg 81%
16:00 +17°C° 0 mm 3 m/s 750 mmHg 83%
17:00 +16°C° 0 mm 2 m/s 749 mmHg 86%
18:00 +15°C° 0 mm 2 m/s 749 mmHg 89%
19:00 +15°C° 0.1 mm 2 m/s 749 mmHg 90%
20:00 +15°C° 0.1 mm 2 m/s 749 mmHg 90%
21:00 +14°C° 0.1 mm 2 m/s 749 mmHg 91%
22:00 +14°C° 0.1 mm 1 m/s 749 mmHg 92%
23:00 +14°C° 0.1 mm 1 m/s 749 mmHg 92%

18 August, Marţi

Timp Temperatura Precipitaţii Vânt Presiune Umiditate
00:00 +14°C° 0.1 mm 1 m/s 749 mmHg 92%
01:00 +14°C° 0 mm 1 m/s 749 mmHg 93%
02:00 +13°C° 0 mm 1 m/s 749 mmHg 93%
03:00 +13°C° 0 mm 1 m/s 748 mmHg 94%
04:00 +13°C° 0 mm 1 m/s 748 mmHg 94%
05:00 +13°C° 0 mm 1 m/s 748 mmHg 93%
06:00 +13°C° 0 mm 1 m/s 748 mmHg 93%
07:00 +14°C° 0 mm 1 m/s 748 mmHg 91%
08:00 +15°C° 0 mm 1 m/s 748 mmHg 89%
09:00 +15°C° 0 mm 1 m/s 748 mmHg 87%
10:00 +16°C° 0 mm 1 m/s 748 mmHg 84%
11:00 +17°C° 0 mm 2 m/s 748 mmHg 82%
12:00 +18°C° 0 mm 2 m/s 748 mmHg 79%
13:00 +18°C° 0 mm 2 m/s 748 mmHg 79%
14:00 +18°C° 0 mm 2 m/s 748 mmHg 79%
15:00 +19°C° 0 mm 2 m/s 748 mmHg 79%
16:00 +18°C° 0 mm 2 m/s 747 mmHg 80%
17:00 +18°C° 0 mm 2 m/s 747 mmHg 82%
18:00 +18°C° 0 mm 2 m/s 747 mmHg 84%
19:00 +17°C° 0 mm 2 m/s 747 mmHg 88%
20:00 +16°C° 0 mm 2 m/s 747 mmHg 91%
21:00 +14°C° 0 mm 1 m/s 747 mmHg 94%
22:00 +14°C° 0 mm 1 m/s 747 mmHg 95%
23:00 +14°C° 0 mm 1 m/s 746 mmHg 95%
Arată mai mult